Location: The Saddle
(36.8333°N, 80.3417°W)
Time: 10:20:55
(UTC-04:00)

Courier 1B - Pass Details

Date: 21 January 2022
Orbit: 962 x 1209 km, 28.3° (Epoch: 26 May)

Event Time Altitude Azimuth Distance (km) Brightness Sun altitude
Rises 22:22:32 0° 251° (WSW) 4,103 11.1 -56.8°
Enters shadow 22:23:44 - 249° (WSW) 3,710 10.8 -57.0°
Reaches altitude 10° 22:25:33 10° 245° (WSW) 3,130 - -57.4°
Maximum altitude 22:32:50 44° 176° (S) 1,572 - -58.7°
Drops below altitude 10° 22:39:51 10° 107° (ESE) 3,013 - -60.0°
Sets 22:42:43 0° 101° (E) 3,937 - -60.5°
